This is the latest recevied weather packets stored in our database for station/object RV1CJ-14. If no packets are shown the sender has not sent any weather packets the latest 10 day(s).
| Time | Temp. | Humidity | Pressure | Rain* | Wind** | Luminosity | Snow |
|---|---|---|---|---|---|---|---|
| 1777796403 | 17.22° C | 56% | 1002.6 hPa | 0 mm | - | 397 W/m² | - |
| 1777795803 | 17.78° C | 54% | 1002.5 hPa | 0 mm | - | 468 W/m² | - |
| 1777795203 | 18.89° C | 53% | 1002.3 hPa | 0 mm | - | 288 W/m² | - |
| 1777794603 | 18.89° C | 52% | 1002.1 hPa | 0 mm | - | 360 W/m² | - |
| 1777794003 | 18.89° C | 52% | 1002.2 hPa | 0 mm | - | 684 W/m² | - |
| 1777793403 | 18.89° C | 52% | 1002.2 hPa | 0 mm | - | 561 W/m² | - |
| 1777792803 | 18.89° C | 52% | 1002.1 hPa | 0 mm | - | 745 W/m² | - |
| 1777792203 | 18.33° C | 53% | 1002.2 hPa | 0 mm | - | 684 W/m² | - |
| 1777791603 | 17.78° C | 54% | 1002.3 hPa | 0 mm | - | 686 W/m² | - |
| 1777791003 | 17.78° C | 54% | 1002.3 hPa | 0 mm | - | 490 W/m² | - |
| 1777790403 | 17.78° C | 54% | 1002.5 hPa | 0 mm | - | 645 W/m² | - |
| 1777789803 | 17.22° C | 56% | 1002.7 hPa | 0 mm | - | 610 W/m² | - |
| 1777789203 | 16.67° C | 57% | 1002.6 hPa | 0 mm | - | 589 W/m² | - |
| 1777788604 | 16.11° C | 58% | 1002.8 hPa | 0 mm | - | 476 W/m² | - |
| 1777788003 | 15.56° C | 59% | 1003 hPa | 0 mm | - | 527 W/m² | - |
| 1777787403 | 15.56° C | 61% | 1003.1 hPa | 0 mm | - | 327 W/m² | - |
| 1777786803 | 14.44° C | 62% | 1003.1 hPa | 0 mm | - | 424 W/m² | - |
| 1777786203 | 14.44° C | 63% | 1003 hPa | 0 mm | - | 311 W/m² | - |
| 1777785603 | 13.89° C | 63% | 1003.1 hPa | 0 mm | - | 137 W/m² | - |
| 1777785003 | 13.89° C | 65% | 1003.2 hPa | 0 mm | - | 121 W/m² | - |
| 1777784403 | 13.33° C | 66% | 1003.3 hPa | 0 mm | - | 111 W/m² | - |
| 1777783803 | 12.78° C | 67% | 1003.3 hPa | 0 mm | - | 105 W/m² | - |
| 1777783203 | 12.22° C | 67% | 1003.3 hPa | 0 mm | - | 97 W/m² | - |
| 1777782603 | 12.22° C | 68% | 1003.3 hPa | 0 mm | - | 83 W/m² | - |
| 1777782003 | 11.67° C | 68% | 1003.3 hPa | 0 mm | - | 185 W/m² | - |
* Rain latest hour (hover to see other rain measurements)
** Current wind speed in m/s (hover to see current wind gust speed)